Shelbyville, IN

7:47 PM EST on December 15, 2019 (GMT -0500)
Shelbyville Municipal

Weather History for KGEZ - October, 2019

Change the Weather History Date:

Friday, October 18, 2019

  Actual Average Record
Temperature  
Mean Temperature 48 °F 53 °F  
Max Temperature 63 °F 65 °F 82 °F (2016)
Min Temperature 32 °F 42 °F 26 °F (2015)
Degree Days  
Heating Degree Days 17 12  
Month to date heating degree days 130 172  
Since 1 July heating degree days 133 257  
Cooling Degree Days 0 0  
Month to date cooling degree days 36 11  
Year to date cooling degree days 1330 910  
Moisture  
Dew Point 35 °F    
Average Humidity 64    
Maximum Humidity 92    
Minimum Humidity 36    
Precipitation  
Precipitation 0.00 in 0.10 in 1.52 in (2004)
Month to date precipitation 0.93 1.88  
Year to date precipitation 33.14 35.33  
Sea Level Pressure  
Sea Level Pressure 30.05 in    
Wind  
Wind Speed 3 mph (East)    
Max Wind Speed 9 mph    
Max Gust Speed 14 mph    
Visibility 8 miles    
Events      
T = Trace of Precipitation, MM = Missing Value Source: NWS Daily Summary

Daily Weather History Graph

Daily Weather History Graph

Search for Another Location

Airport or City:

Astronomy

Oct. 18, 2019 Rise Set
Actual Time 7:56 AM EDT 6:59 PM EDT
Civil Twilight 7:28 AM EDT 7:27 PM EDT
Nautical Twilight 6:57 AM EDT 7:58 PM EDT
Astronomical Twilight 6:26 AM EDT 8:29 PM EDT
Moon 10:16 PM EDT (10/18) 12:27 PM EDT (10/18)
Length of Visible Light 11h 58m
Length of Day
11h 03m
Waning Gibbous, 79% of the Moon is Illuminated
Oct 18
Waning Gibbous
Oct 21
Last Quarter
Oct 27
New
Nov 4
First Quarter
Nov 12
Full

Hourly Weather History & Observations

Time (EDT) Temp. Windchill Dew Point Humidity Pressure Visibility Wind Dir Wind Speed Gust Speed Precip Events Conditions
12:53 AM 39.9 °F 37.8 °F 35.1 °F 83% 30.04 in 10.0 mi NE 3.5 mph - N/A   Clear
1:53 AM 36.0 °F - 33.1 °F 89% 30.05 in 10.0 mi Calm Calm - N/A   Clear
2:53 AM 35.1 °F - 30.9 °F 85% 30.05 in 10.0 mi Calm Calm - N/A   Clear
3:53 AM 34.0 °F - 30.9 °F 89% 30.06 in 10.0 mi Calm Calm - N/A   Clear
4:53 AM 34.0 °F - 30.9 °F 89% 30.07 in 10.0 mi Calm Calm - N/A   Clear
5:53 AM 33.1 °F - 30.0 °F 89% 30.08 in 4.0 mi Calm Calm - N/A   Clear
6:06 AM 33.1 °F 27.7 °F 30.9 °F 92% 30.07 in 1.8 mi ENE 5.8 mph - N/A   Partly Cloudy
6:17 AM 33.1 °F 30.0 °F 30.9 °F 92% 30.07 in 3.0 mi ENE 3.5 mph - N/A   Partly Cloudy
6:53 AM 33.1 °F - 28.9 °F 85% 30.10 in 9.0 mi Calm Calm - N/A   Clear
7:39 AM 33.1 °F 28.7 °F 30.9 °F 92% 30.09 in 3.0 mi ENE 4.6 mph - N/A   Partly Cloudy
7:53 AM 33.1 °F 28.7 °F 30.0 °F 89% 30.10 in 5.0 mi ENE 4.6 mph - N/A   Partly Cloudy
8:53 AM 37.0 °F - 35.1 °F 93% 30.12 in 4.0 mi Calm Calm - N/A   Clear
9:53 AM 45.0 °F 41.8 °F 39.0 °F 80% 30.12 in 10.0 mi ENE 5.8 mph - N/A   Clear
10:53 AM 51.1 °F - 39.0 °F 63% 30.12 in 10.0 mi Calm Calm - N/A   Clear
11:53 AM 55.0 °F - 37.9 °F 53% 30.09 in 10.0 mi Variable 5.8 mph - N/A   Clear
12:53 PM 57.9 °F - 37.9 °F 47% 30.09 in 10.0 mi Calm Calm - N/A   Clear
1:53 PM 59.0 °F - 37.0 °F 44% 30.07 in 10.0 mi Variable 4.6 mph - N/A   Clear
2:53 PM 61.0 °F - 37.0 °F 41% 30.04 in 10.0 mi Variable 3.5 mph - N/A   Clear
3:53 PM 62.1 °F - 35.1 °F 37% 30.03 in 10.0 mi SE 5.8 mph - N/A   Clear
4:53 PM 62.1 °F - 35.1 °F 37% 30.01 in 10.0 mi Variable 4.6 mph - N/A   Clear
5:53 PM 63.0 °F - 35.1 °F 35% 30.00 in 10.0 mi SE 4.6 mph - N/A   Clear
6:53 PM 57.0 °F - 36.0 °F 45% 29.99 in 10.0 mi ESE 5.8 mph - N/A   Clear
7:53 PM 48.0 °F - 37.9 °F 68% 30.00 in 10.0 mi SE 4.6 mph - N/A   Clear
8:53 PM 45.0 °F 41.8 °F 37.9 °F 76% 29.99 in 10.0 mi ESE 5.8 mph - N/A   Clear
9:53 PM 43.0 °F 41.3 °F 37.0 °F 80% 29.99 in 10.0 mi SE 3.5 mph - N/A   Clear
10:53 PM 45.0 °F 41.2 °F 37.0 °F 74% 29.99 in 10.0 mi ESE 6.9 mph - N/A   Clear
11:53 PM 44.1 °F 40.8 °F 36.0 °F 73% 29.97 in 10.0 mi ESE 5.8 mph - N/A   Clear